time, Switch, Flow(0), Analog(2)
yyyy/mm/dd HH:MM:SS.fff, True=FILTERED|False=TOTAL, L/min, V
2023/06/29 07:00:02.592, True, 4.380, 0.134051
2023/06/29 07:00:03.097, True, 4.314, 0.136110
2023/06/29 07:00:03.601, True, 3.976, 0.134585
2023/06/29 07:00:04.097, True, 2.359, 0.133211
2023/06/29 07:00:04.601, True, 1.990, 0.132601
2023/06/29 07:00:05.104, True, 1.989, 0.132296
2023/06/29 07:00:05.601, True, 1.685, 0.135729
2023/06/29 07:00:06.104, True, 1.660, 0.134432
2023/06/29 07:00:06.609, True, 1.656, 0.134661
2023/06/29 07:00:07.105, True, 2.022, 0.133669
2023/06/29 07:00:07.608, True, 1.989, 0.133059
2023/06/29 07:00:08.113, True, 1.658, 0.132677
2023/06/29 07:00:08.609, True, 2.022, 0.134203
2023/06/29 07:00:09.112, True, 1.658, 0.133898
2023/06/29 07:00:09.617, True, 1.990, 0.135195
2023/06/29 07:00:10.113, True, 2.021, 0.132601
2023/06/29 07:00:10.616, True, 1.658, 0.133059
2023/06/29 07:00:11.112, True, 1.684, 0.135348
2023/06/29 07:00:11.616, True, 1.658, 0.134356
2023/06/29 07:00:12.121, True, 1.658, 0.134585
2023/06/29 07:00:12.625, True, 1.990, 0.133364
2023/06/29 07:00:13.121, True, 1.684, 0.136187
2023/06/29 07:00:13.625, True, 1.658, 0.131838
2023/06/29 07:00:14.129, True, 1.989, 0.135805
2023/06/29 07:00:14.625, True, 1.685, 0.133669
2023/06/29 07:00:15.128, True, 1.990, 0.134585
2023/06/29 07:00:15.633, True, 1.658, 0.134661
2023/06/29 07:00:16.129, True, 2.022, 0.134051
2023/06/29 07:00:16.633, True, 1.657, 0.134737
2023/06/29 07:00:17.137, True, 1.990, 0.132830
2023/06/29 07:00:17.633, True, 1.685, 0.132753
2023/06/29 07:00:18.137, True, 1.990, 0.133822
2023/06/29 07:00:18.641, True, 1.658, 0.134432
2023/06/29 07:00:19.137, True, 1.685, 0.134432
2023/06/29 07:00:19.640, True, 1.990, 0.132982
2023/06/29 07:00:20.145, True, 1.659, 0.132601
2023/06/29 07:00:20.641, True, 2.022, 0.133822
2023/06/29 07:00:21.145, True, 1.657, 0.133974
2023/06/29 07:00:21.648, True, 1.658, 0.135500
2023/06/29 07:00:22.145, True, 1.684, 0.131991
2023/06/29 07:00:22.649, True, 1.992, 0.136110
2023/06/29 07:00:23.153, True, 1.658, 0.135729
2023/06/29 07:00:23.656, True, 1.988, 0.134661
2023/06/29 07:00:24.152, True, 1.685, 0.132830
2023/06/29 07:00:24.657, True, 1.991, 0.133211
2023/06/29 07:00:25.160, True, 1.657, 0.134051
2023/06/29 07:00:25.656, True, 1.685, 0.134966
2023/06/29 07:00:26.161, True, 1.990, 0.132982
2023/06/29 07:00:26.657, True, 2.022, 0.133974
2023/06/29 07:00:27.161, True, 1.658, 0.135348
2023/06/29 07:00:27.665, True, 1.990, 0.133288
2023/06/29 07:00:28.161, True, 2.022, 0.131609
2023/06/29 07:00:28.665, True, 1.990, 0.133822
2023/06/29 07:00:29.169, True, 1.658, 0.133974
2023/06/29 07:00:29.673, True, 1.990, 0.132448
2023/06/29 07:00:30.169, True, 2.022, 0.133516
2023/06/29 07:00:30.673, True, 1.658, 0.133288
2023/06/29 07:00:31.177, True, 1.657, 0.135042
2023/06/29 07:00:31.673, True, 2.022, 0.132906
2023/06/29 07:00:32.176, True, 1.658, 0.135195
2023/06/29 07:00:32.681, True, 1.989, 0.133822
2023/06/29 07:00:33.177, True, 2.022, 0.132906
2023/06/29 07:00:33.681, True, 1.659, 0.132601
2023/06/29 07:00:34.185, True, 1.988, 0.134127
2023/06/29 07:00:34.681, True, 1.685, 0.135348
2023/06/29 07:00:35.184, True, 1.658, 0.133898
2023/06/29 07:00:35.689, True, 1.658, 0.134585
2023/06/29 07:00:36.193, True, 1.658, 0.133211
2023/06/29 07:00:36.689, True, 1.685, 0.133059
2023/06/29 07:00:37.193, True, 1.658, 0.135195
2023/06/29 07:00:37.689, True, 2.022, 0.134203
2023/06/29 07:00:38.193, True, 1.658, 0.134432
2023/06/29 07:00:38.697, True, 1.990, 0.135882
2023/06/29 07:00:39.193, True, 1.685, 0.134279
2023/06/29 07:00:39.697, True, 1.990, 0.134813
2023/06/29 07:00:40.201, True, 1.658, 0.135882
2023/06/29 07:00:40.697, True, 2.021, 0.135424
2023/06/29 07:00:41.201, True, 1.658, 0.138399
2023/06/29 07:00:41.705, True, 1.989, 0.135576
2023/06/29 07:00:42.209, True, 1.658, 0.137255
2023/06/29 07:00:42.705, True, 1.685, 0.136721
2023/06/29 07:00:43.209, True, 1.990, 0.138705
2023/06/29 07:00:43.705, True, 1.685, 0.136416
2023/06/29 07:00:44.209, True, 1.658, 0.136492
2023/06/29 07:00:44.713, True, 1.658, 0.137865
2023/06/29 07:00:45.217, True, 1.993, 0.138476
2023/06/29 07:00:45.713, True, 1.682, 0.136416
2023/06/29 07:00:46.216, True, 1.990, 0.138323
2023/06/29 07:00:46.721, True, 1.989, 0.140002
2023/06/29 07:00:47.217, True, 2.022, 0.138170
2023/06/29 07:00:47.721, True, 1.658, 0.138476
2023/06/29 07:00:48.225, True, 1.991, 0.137865
2023/06/29 07:00:48.720, True, 1.683, 0.138476
2023/06/29 07:00:49.225, True, 1.989, 0.138247
2023/06/29 07:00:49.729, True, 1.658, 0.139086
2023/06/29 07:00:50.225, True, 1.685, 0.140383
2023/06/29 07:00:50.729, True, 1.989, 0.141299
2023/06/29 07:00:51.225, True, 1.685, 0.137636
2023/06/29 07:00:51.729, True, 1.989, 0.139010
2023/06/29 07:00:52.233, True, 1.658, 0.138857
2023/06/29 07:00:52.728, True, 2.022, 0.140154
2023/06/29 07:00:53.232, True, 1.989, 0.138476
2023/06/29 07:00:53.737, True, 1.658, 0.139391
2023/06/29 07:00:54.241, True, 1.991, 0.139086
2023/06/29 07:00:54.736, True, 1.683, 0.137484
2023/06/29 07:00:55.241, True, 1.658, 0.139162
2023/06/29 07:00:55.737, True, 2.021, 0.139620
2023/06/29 07:00:56.241, True, 1.992, 0.140383
2023/06/29 07:00:56.745, True, 1.656, 0.139239
2023/06/29 07:00:57.241, True, 2.022, 0.140841
2023/06/29 07:00:57.745, True, 1.658, 0.142290
2023/06/29 07:00:58.249, True, 1.989, 0.140459
2023/06/29 07:00:58.744, True, 2.022, 0.139544
2023/06/29 07:00:59.249, True, 1.661, 0.140688
2023/06/29 07:00:59.753, True, 1.655, 0.140993
2023/06/29 07:01:00.248, True, 2.022, 0.141299
2023/06/29 07:01:00.753, True, 1.661, 0.140688
2023/06/29 07:01:01.257, True, 1.988, 0.140841
2023/06/29 07:01:01.753, True, 2.020, 0.139467
2023/06/29 07:01:02.257, True, 1.990, 0.140688
2023/06/29 07:01:02.761, True, 1.329, 0.140993
2023/06/29 07:01:03.257, True, 2.021, 0.138018
2023/06/29 07:01:03.761, True, 1.655, 0.137331
2023/06/29 07:01:04.265, True, 1.990, 0.140459
2023/06/29 07:01:04.761, True, 1.688, 0.140383
2023/06/29 07:01:05.265, True, 1.986, 0.139849
2023/06/29 07:01:05.769, True, 1.658, 0.142596
2023/06/29 07:01:06.265, True, 2.025, 0.141222
2023/06/29 07:01:06.769, True, 1.655, 0.140612
2023/06/29 07:01:07.273, True, 1.990, 0.140230
2023/06/29 07:01:07.777, True, 1.657, 0.141146
2023/06/29 07:01:08.273, True, 2.022, 0.144503
2023/06/29 07:01:08.777, True, 1.991, 0.139696
2023/06/29 07:01:09.273, True, 1.684, 0.142519
2023/06/29 07:01:09.777, True, 1.658, 0.141833
2023/06/29 07:01:10.281, True, 1.990, 0.139849
2023/06/29 07:01:10.785, True, 1.658, 0.142367
2023/06/29 07:01:11.281, True, 2.022, 0.140078
2023/06/29 07:01:11.785, True, 1.658, 0.139544
2023/06/29 07:01:12.289, True, 1.989, 0.141375
2023/06/29 07:01:12.785, True, 1.687, 0.142138
2023/06/29 07:01:13.288, True, 1.987, 0.142443
2023/06/29 07:01:13.792, True, 1.990, 0.141527
2023/06/29 07:01:14.289, True, 1.687, 0.143130
2023/06/29 07:01:14.793, True, 1.986, 0.140459
2023/06/29 07:01:15.289, True, 1.685, 0.141070
2023/06/29 07:01:15.793, True, 1.990, 0.141756
2023/06/29 07:01:16.297, True, 1.660, 0.141909
2023/06/29 07:01:16.793, True, 2.019, 0.140307
2023/06/29 07:01:17.297, True, 1.660, 0.143435
2023/06/29 07:01:17.801, True, 1.987, 0.139544
2023/06/29 07:01:18.296, True, 2.022, 0.138933
2023/06/29 07:01:18.801, True, 1.658, 0.141909
2023/06/29 07:01:19.305, True, 1.990, 0.141375
2023/06/29 07:01:19.809, True, 1.989, 0.141070
2023/06/29 07:01:20.305, True, 1.685, 0.141756
2023/06/29 07:01:20.809, True, 1.661, 0.140154
2023/06/29 07:01:21.313, True, 1.655, 0.140307
2023/06/29 07:01:21.809, True, 1.686, 0.142519
2023/06/29 07:01:22.313, True, 1.988, 0.142367
2023/06/29 07:01:22.817, True, 1.658, 0.141604
2023/06/29 07:01:23.313, True, 1.685, 0.138857
2023/06/29 07:01:23.817, True, 1.992, 0.141146
2023/06/29 07:01:24.321, True, 1.655, 0.140459
2023/06/29 07:01:24.817, True, 2.022, 0.140383
2023/06/29 07:01:25.321, True, 1.660, 0.142901
2023/06/29 07:01:25.825, True, 1.990, 0.139696
2023/06/29 07:01:26.320, True, 2.020, 0.142519
2023/06/29 07:01:26.825, True, 1.657, 0.140612
2023/06/29 07:01:27.329, True, 1.658, 0.140002
2023/06/29 07:01:27.824, True, 1.685, 0.140688
2023/06/29 07:01:28.329, True, 1.989, 0.141756
2023/06/29 07:01:28.833, True, 1.659, 0.140612
2023/06/29 07:01:29.329, True, 2.021, 0.141451
2023/06/29 07:01:29.833, True, 1.658, 0.139239
2023/06/29 07:01:30.329, True, 2.022, 0.140612
2023/06/29 07:01:30.832, True, 1.658, 0.139162
2023/06/29 07:01:31.337, True, 1.990, 0.142061
2023/06/29 07:01:31.833, True, 1.685, 0.139620
2023/06/29 07:01:32.337, True, 1.990, 0.140230
2023/06/29 07:01:32.840, True, 1.989, 0.141451
2023/06/29 07:01:33.337, True, 1.685, 0.141604
2023/06/29 07:01:33.841, True, 1.989, 0.140841
2023/06/29 07:01:34.345, True, 1.658, 0.139925
2023/06/29 07:01:34.841, True, 1.685, 0.140764
2023/06/29 07:01:35.344, True, 1.658, 0.138018
2023/06/29 07:01:35.849, True, 1.659, 0.141756
2023/06/29 07:01:36.345, True, 1.684, 0.139773
2023/06/29 07:01:36.849, True, 1.990, 0.139696
2023/06/29 07:01:37.345, True, 2.022, 0.140841
2023/06/29 07:01:37.849, True, 1.658, 0.140078
2023/06/29 07:01:38.353, True, 1.990, 0.141604
2023/06/29 07:01:38.849, True, 2.021, 0.139162
2023/06/29 07:01:39.353, True, 1.661, 0.142901
2023/06/29 07:01:39.857, True, 1.988, 0.138399
2023/06/29 07:01:40.353, True, 1.683, 0.141680
2023/06/29 07:01:40.856, True, 1.990, 0.142367
2023/06/29 07:01:41.361, True, 1.658, 0.139620
2023/06/29 07:01:41.856, True, 1.685, 0.143053
2023/06/29 07:01:42.361, True, 1.989, 0.139773
2023/06/29 07:01:42.865, True, 1.990, 0.138781
2023/06/29 07:01:43.361, True, 1.685, 0.139315
2023/06/29 07:01:43.865, True, 1.658, 0.140078
2023/06/29 07:01:44.369, True, 1.989, 0.140917
2023/06/29 07:01:44.865, True, 1.685, 0.140536
2023/06/29 07:01:45.368, True, 1.990, 0.137484
2023/06/29 07:01:45.873, True, 1.989, 0.141375
2023/06/29 07:01:46.368, True, 1.688, 0.140764
2023/06/29 07:01:46.873, True, 1.987, 0.138247
2023/06/29 07:01:47.377, True, 1.657, 0.140230
2023/06/29 07:01:47.873, True, 2.022, 0.139467
2023/06/29 07:01:48.377, True, 1.989, 0.139010
2023/06/29 07:01:48.881, True, 1.658, 0.139010
2023/06/29 07:01:49.377, True, 2.022, 0.139315
2023/06/29 07:01:49.881, True, 1.989, 0.142290
2023/06/29 07:01:50.385, True, 1.658, 0.138781
2023/06/29 07:01:50.889, True, 1.990, 0.138552
2023/06/29 07:01:51.385, True, 1.685, 0.139239
2023/06/29 07:01:51.889, True, 1.658, 0.139773
2023/06/29 07:01:52.393, True, 1.658, 0.140002
2023/06/29 07:01:52.897, True, 1.658, 0.142367
2023/06/29 07:01:53.392, True, 2.022, 0.138552
2023/06/29 07:01:53.897, True, 1.659, 0.139391
2023/06/29 07:01:54.401, True, 1.989, 0.137560
2023/06/29 07:01:54.897, True, 1.685, 0.140993
2023/06/29 07:01:55.401, True, 1.993, 0.141299
2023/06/29 07:01:55.905, True, 1.656, 0.140688
2023/06/29 07:01:56.401, True, 2.021, 0.137865
2023/06/29 07:01:56.905, True, 1.658, 0.139696
2023/06/29 07:01:57.409, True, 1.989, 0.138018
2023/06/29 07:01:57.905, True, 1.684, 0.140764
2023/06/29 07:01:58.409, True, 1.658, 0.138094
2023/06/29 07:01:58.913, True, 1.658, 0.139849
2023/06/29 07:01:59.409, True, 2.022, 0.140459
2023/06/29 07:01:59.913, True, 1.658, 0.139620
2023/06/29 07:02:00.417, True, 1.989, 0.139925
2023/06/29 07:02:00.913, True, 1.685, 0.139925
2023/06/29 07:02:01.417, True, 1.990, 0.140383
2023/06/29 07:02:01.921, True, 1.658, 0.139849
2023/06/29 07:02:02.416, True, 2.025, 0.139849
2023/06/29 07:02:02.921, True, 1.655, 0.141146
2023/06/29 07:02:03.425, True, 1.657, 0.139010
2023/06/29 07:02:03.921, True, 1.685, 0.137942
2023/06/29 07:02:04.425, True, 1.658, 0.139239
2023/06/29 07:02:04.929, True, 1.658, 0.138247
2023/06/29 07:02:05.425, True, 1.685, 0.139239
2023/06/29 07:02:05.929, True, 1.990, 0.138247
2023/06/29 07:02:06.433, True, 1.658, 0.138781
2023/06/29 07:02:06.937, True, 1.658, 0.138705
2023/06/29 07:02:07.433, True, 2.022, 0.140230
2023/06/29 07:02:07.937, True, 1.658, 0.140993
2023/06/29 07:02:08.441, True, 1.990, 0.138018
2023/06/29 07:02:08.937, True, 2.022, 0.140841
2023/06/29 07:02:09.440, True, 1.658, 0.139849
2023/06/29 07:02:09.945, True, 1.990, 0.138781
2023/06/29 07:02:10.441, True, 1.685, 0.138247
2023/06/29 07:02:10.945, True, 1.989, 0.140078
2023/06/29 07:02:11.449, True, 1.658, 0.140917
2023/06/29 07:02:11.945, True, 2.022, 0.140688
2023/06/29 07:02:12.449, True, 1.658, 0.140154
2023/06/29 07:02:12.945, True, 1.684, 0.139010
2023/06/29 07:02:13.449, True, 1.990, 0.139315
2023/06/29 07:02:13.953, True, 1.657, 0.139544
2023/06/29 07:02:14.449, True, 2.022, 0.141451
2023/06/29 07:02:14.953, True, 1.659, 0.138247
2023/06/29 07:02:15.456, True, 1.989, 0.140078
2023/06/29 07:02:15.952, True, 1.686, 0.140154
2023/06/29 07:02:16.457, True, 1.990, 0.137484
2023/06/29 07:02:16.960, True, 1.658, 0.139849
2023/06/29 07:02:17.456, True, 1.683, 0.137179
2023/06/29 07:02:17.961, True, 1.660, 0.140002
2023/06/29 07:02:18.464, True, 1.656, 0.139010
2023/06/29 07:02:18.961, True, 1.685, 0.141604
2023/06/29 07:02:19.465, True, 1.989, 0.138552
2023/06/29 07:02:19.968, True, 1.658, 0.139315
2023/06/29 07:02:20.464, True, 1.685, 0.137255
2023/06/29 07:02:20.969, True, 1.992, 0.139467
2023/06/29 07:02:21.472, True, 1.987, 0.138857
2023/06/29 07:02:21.968, True, 1.687, 0.138476
2023/06/29 07:02:22.472, True, 1.987, 0.139467
2023/06/29 07:02:22.976, True, 1.661, 0.137942
2023/06/29 07:02:23.472, True, 2.018, 0.137789
2023/06/29 07:02:23.976, True, 1.658, 0.138857
2023/06/29 07:02:24.480, True, 1.990, 0.138094
2023/06/29 07:02:24.976, True, 1.685, 0.139925
2023/06/29 07:02:25.480, True, 1.993, 0.137713
2023/06/29 07:02:25.984, True, 1.986, 0.137560
2023/06/29 07:02:26.480, True, 1.684, 0.138399
2023/06/29 07:02:26.985, True, 1.992, 0.141527
2023/06/29 07:02:27.488, True, 1.656, 0.138705
2023/06/29 07:02:27.984, True, 2.022, 0.138628
2023/06/29 07:02:28.489, True, 1.661, 0.137636
2023/06/29 07:02:28.993, True, 1.986, 0.139773
2023/06/29 07:02:29.489, True, 1.686, 0.139086
2023/06/29 07:02:29.993, True, 1.988, 0.141375
2023/06/29 07:02:30.497, True, 1.659, 0.138933
2023/06/29 07:02:30.992, True, 2.020, 0.139773
2023/06/29 07:02:31.497, True, 1.658, 0.139391
2023/06/29 07:02:32.001, True, 1.989, 0.138781
2023/06/29 07:02:32.505, True, 1.990, 0.139467
2023/06/29 07:02:33.001, True, 1.688, 0.138170
2023/06/29 07:02:33.505, True, 1.655, 0.138170
2023/06/29 07:02:34.009, True, 1.659, 0.140078
2023/06/29 07:02:34.505, True, 1.684, 0.138933
2023/06/29 07:02:35.009, True, 1.989, 0.137865
2023/06/29 07:02:35.505, True, 1.686, 0.140993
2023/06/29 07:02:36.009, True, 1.991, 0.137560
2023/06/29 07:02:36.513, True, 1.655, 0.141222
2023/06/29 07:02:37.016, True, 1.658, 0.137331
2023/06/29 07:02:37.513, True, 2.022, 0.138247
2023/06/29 07:02:38.017, True, 1.658, 0.137789
2023/06/29 07:02:38.521, True, 1.990, 0.137789
2023/06/29 07:02:39.016, True, 1.688, 0.137179
2023/06/29 07:02:39.521, True, 1.655, 0.138094
2023/06/29 07:02:40.025, True, 1.990, 0.138933
2023/06/29 07:02:40.521, True, 1.685, 0.139925
2023/06/29 07:02:41.025, True, 1.660, 0.137865
2023/06/29 07:02:41.529, True, 1.988, 0.137179
2023/06/29 07:02:42.033, True, 1.658, 0.138476
2023/06/29 07:02:42.529, True, 1.685, 0.136721
2023/06/29 07:02:43.033, True, 1.990, 0.137484
2023/06/29 07:02:43.537, True, 1.659, 0.137789
2023/06/29 07:02:44.033, True, 2.021, 0.139620
2023/06/29 07:02:44.537, True, 1.658, 0.138018
2023/06/29 07:02:45.040, True, 1.990, 0.139391
2023/06/29 07:02:45.537, True, 1.684, 0.140078
2023/06/29 07:02:46.041, True, 1.990, 0.137255
2023/06/29 07:02:46.545, True, 1.658, 0.138705
2023/06/29 07:02:47.041, True, 2.022, 0.137942
2023/06/29 07:02:47.545, True, 1.990, 0.137865
2023/06/29 07:02:48.049, True, 1.658, 0.139925
2023/06/29 07:02:48.545, True, 2.022, 0.136339
2023/06/29 07:02:49.049, True, 1.658, 0.138018
2023/06/29 07:02:49.545, True, 2.022, 0.137636
2023/06/29 07:02:50.049, True, 1.659, 0.136873
2023/06/29 07:02:50.552, True, 1.988, 0.140154
2023/06/29 07:02:51.049, True, 1.688, 0.137331
2023/06/29 07:02:51.553, True, 1.658, 0.138781
2023/06/29 07:02:52.057, True, 1.655, 0.137942
2023/06/29 07:02:52.553, True, 2.022, 0.138399
2023/06/29 07:02:53.057, True, 1.658, 0.137026
2023/06/29 07:02:53.561, True, 1.658, 0.135500
2023/06/29 07:02:54.056, True, 2.022, 0.138933
2023/06/29 07:02:54.561, True, 1.658, 0.136721
2023/06/29 07:02:55.065, True, 1.990, 0.138323
2023/06/29 07:02:55.561, True, 1.687, 0.138094
2023/06/29 07:02:56.065, True, 1.987, 0.137179
2023/06/29 07:02:56.561, True, 1.685, 0.138170
2023/06/29 07:02:57.065, True, 1.990, 0.138018
2023/06/29 07:02:57.569, True, 1.989, 0.140459
2023/06/29 07:02:58.065, True, 1.684, 0.136797
2023/06/29 07:02:58.569, True, 1.990, 0.136187
2023/06/29 07:02:59.073, True, 1.989, 0.138476
2023/06/29 07:02:59.569, True, 1.685, 0.138170
2023/06/29 07:03:00.073, True, 1.993, 0.137179
2023/06/29 07:03:00.577, True, 1.655, 0.137560
2023/06/29 07:03:01.073, True, 1.685, 0.139086
2023/06/29 07:03:01.577, True, 1.658, 0.136950
2023/06/29 07:03:02.081, True, 1.658, 0.136416
2023/06/29 07:03:02.577, True, 1.685, 0.139773
2023/06/29 07:03:03.081, True, 1.990, 0.135119
2023/06/29 07:03:03.577, True, 1.685, 0.137942
2023/06/29 07:03:04.080, True, 1.990, 0.137331
2023/06/29 07:03:04.585, True, 1.990, 0.138018
2023/06/29 07:03:05.081, True, 1.686, 0.136797
2023/06/29 07:03:05.585, True, 1.656, 0.138628
2023/06/29 07:03:06.089, True, 1.658, 0.138781
2023/06/29 07:03:06.585, True, 1.685, 0.138094
2023/06/29 07:03:07.089, True, 1.990, 0.137026
2023/06/29 07:03:07.593, True, 1.658, 0.137407
2023/06/29 07:03:08.089, True, 2.022, 0.135576
2023/06/29 07:03:08.593, True, 1.658, 0.139010
2023/06/29 07:03:09.096, True, 1.660, 0.137636
2023/06/29 07:03:09.593, True, 1.683, 0.137865
2023/06/29 07:03:10.097, True, 1.658, 0.137484
2023/06/29 07:03:10.601, True, 1.658, 0.136950
2023/06/29 07:03:11.097, True, 1.684, 0.138552
2023/06/29 07:03:11.601, True, 1.990, 0.138018
2023/06/29 07:03:12.105, True, 1.989, 0.137484
2023/06/29 07:03:12.601, True, 1.685, 0.136263
2023/06/29 07:03:13.105, True, 1.658, 0.138705
2023/06/29 07:03:13.608, True, 1.991, 0.137865
2023/06/29 07:03:14.113, True, 1.659, 0.138628
2023/06/29 07:03:14.609, True, 2.020, 0.137865
2023/06/29 07:03:15.113, True, 1.658, 0.136721
2023/06/29 07:03:15.617, True, 1.990, 0.137102
2023/06/29 07:03:16.113, True, 2.021, 0.137713
2023/06/29 07:03:16.617, True, 1.659, 0.138552
2023/06/29 07:03:17.113, True, 2.020, 0.136492
2023/06/29 07:03:17.617, True, 1.990, 0.136416
2023/06/29 07:03:18.121, True, 1.658, 0.135729
2023/06/29 07:03:18.617, True, 1.685, 0.135729
2023/06/29 07:03:19.121, True, 1.989, 0.136034
2023/06/29 07:03:19.625, True, 1.990, 0.138476
2023/06/29 07:03:20.128, True, 1.658, 0.137255
2023/06/29 07:03:20.625, True, 1.685, 0.137255
2023/06/29 07:03:21.129, True, 1.658, 0.137407
2023/06/29 07:03:21.633, True, 1.990, 0.136721
2023/06/29 07:03:22.129, True, 1.685, 0.137026
2023/06/29 07:03:22.632, True, 1.658, 0.137713
2023/06/29 07:03:23.136, True, 1.990, 0.136339
2023/06/29 07:03:23.633, True, 1.685, 0.137026
2023/06/29 07:03:24.137, True, 1.989, 0.138476
2023/06/29 07:03:24.641, True, 1.658, 0.139010
2023/06/29 07:03:25.137, True, 2.022, 0.135653
2023/06/29 07:03:25.641, True, 1.658, 0.135500
2023/06/29 07:03:26.137, True, 1.685, 0.138018
2023/06/29 07:03:26.641, True, 1.990, 0.136263
2023/06/29 07:03:27.144, True, 1.658, 0.135958
2023/06/29 07:03:27.641, True, 2.021, 0.138476
2023/06/29 07:03:28.145, True, 1.658, 0.136721
2023/06/29 07:03:28.649, True, 1.658, 0.136568
2023/06/29 07:03:29.145, True, 1.685, 0.136263
2023/06/29 07:03:29.649, True, 1.990, 0.137331
2023/06/29 07:03:30.152, True, 1.659, 0.137865
2023/06/29 07:03:30.649, True, 1.684, 0.137865
2023/06/29 07:03:31.153, True, 1.658, 0.135729
2023/06/29 07:03:31.656, True, 1.989, 0.135576
2023/06/29 07:03:32.153, True, 1.685, 0.136645
2023/06/29 07:03:32.657, True, 1.990, 0.135042
2023/06/29 07:03:33.161, True, 1.990, 0.137331
2023/06/29 07:03:33.657, True, 2.021, 0.137255
2023/06/29 07:03:34.161, True, 1.658, 0.137102
2023/06/29 07:03:34.657, True, 1.684, 0.135729
2023/06/29 07:03:35.161, True, 1.658, 0.137179
2023/06/29 07:03:35.665, True, 1.658, 0.136797
2023/06/29 07:03:36.160, True, 1.684, 0.136645
2023/06/29 07:03:36.665, True, 1.658, 0.137865
2023/06/29 07:03:37.169, True, 1.989, 0.138933
2023/06/29 07:03:37.665, True, 1.688, 0.137407
2023/06/29 07:03:38.169, True, 1.986, 0.136339
2023/06/29 07:03:38.673, True, 1.990, 0.137789
2023/06/29 07:03:39.169, True, 1.685, 0.135805
2023/06/29 07:03:39.673, True, 1.989, 0.135958
2023/06/29 07:03:40.177, True, 1.658, 0.136645
2023/06/29 07:03:40.673, True, 1.685, 0.138247
2023/06/29 07:03:41.177, True, 1.993, 0.135958
2023/06/29 07:03:41.681, True, 1.656, 0.136416
2023/06/29 07:03:42.177, True, 2.021, 0.138552
2023/06/29 07:03:42.681, True, 1.989, 0.136721
2023/06/29 07:03:43.185, True, 1.659, 0.137407
2023/06/29 07:03:43.681, True, 2.022, 0.135042
2023/06/29 07:03:44.185, True, 1.660, 0.139010
2023/06/29 07:03:44.689, True, 1.656, 0.134661
2023/06/29 07:03:45.185, True, 2.022, 0.135348
2023/06/29 07:03:45.688, True, 1.658, 0.135348
2023/06/29 07:03:46.185, True, 1.685, 0.137102
2023/06/29 07:03:46.689, True, 1.658, 0.135958
2023/06/29 07:03:47.193, True, 1.990, 0.138705
2023/06/29 07:03:47.689, True, 1.685, 0.138170
2023/06/29 07:03:48.193, True, 1.658, 0.137789
2023/06/29 07:03:48.697, True, 1.990, 0.134432
2023/06/29 07:03:49.193, True, 1.685, 0.135653
2023/06/29 07:03:49.697, True, 1.658, 0.136721
2023/06/29 07:03:50.201, True, 1.658, 0.135653
2023/06/29 07:03:50.697, True, 2.022, 0.136873
2023/06/29 07:03:51.201, True, 1.658, 0.135882
2023/06/29 07:03:51.705, True, 1.990, 0.140078
2023/06/29 07:03:52.201, True, 2.022, 0.137407
2023/06/29 07:03:52.705, True, 1.658, 0.135729
2023/06/29 07:03:53.209, True, 1.989, 0.137102
2023/06/29 07:03:53.705, True, 2.022, 0.135805
2023/06/29 07:03:54.209, True, 1.658, 0.136034
2023/06/29 07:03:54.713, True, 1.990, 0.135576
2023/06/29 07:03:55.217, True, 1.989, 0.136034
2023/06/29 07:03:55.713, True, 2.023, 0.136797
2023/06/29 07:03:56.217, True, 1.657, 0.135958
2023/06/29 07:03:56.721, True, 1.658, 0.136492
2023/06/29 07:03:57.216, True, 2.022, 0.134737
2023/06/29 07:03:57.720, True, 1.990, 0.137179
2023/06/29 07:03:58.225, True, 1.657, 0.135119
2023/06/29 07:03:58.720, True, 2.022, 0.135958
2023/06/29 07:03:59.224, True, 1.989, 0.136568
2023/06/29 07:03:59.729, True, 1.990, 0.137942
2023/06/29 07:04:00.233, True, 1.659, 0.136950
2023/06/29 07:04:00.728, True, 2.021, 0.135729
2023/06/29 07:04:01.233, True, 1.988, 0.136416
2023/06/29 07:04:01.737, True, 1.660, 0.135805
2023/06/29 07:04:02.233, True, 2.022, 0.134737
2023/06/29 07:04:02.736, True, 1.989, 0.134813
2023/06/29 07:04:03.241, True, 1.659, 0.138094
2023/06/29 07:04:03.737, True, 2.021, 0.135424
2023/06/29 07:04:04.241, True, 1.988, 0.135042
2023/06/29 07:04:04.745, True, 1.659, 0.134051
2023/06/29 07:04:05.241, True, 2.021, 0.136492
2023/06/29 07:04:05.744, True, 1.657, 0.135653
2023/06/29 07:04:06.249, True, 1.990, 0.137407
2023/06/29 07:04:06.745, True, 1.686, 0.137407
2023/06/29 07:04:07.248, True, 1.991, 0.138323
2023/06/29 07:04:07.753, True, 1.657, 0.135271
2023/06/29 07:04:08.249, True, 1.685, 0.138705
2023/06/29 07:04:08.753, True, 1.988, 0.135805
2023/06/29 07:04:09.257, True, 1.989, 0.137331
2023/06/29 07:04:09.753, True, 1.685, 0.136797
2023/06/29 07:04:10.257, True, 1.658, 0.136492
2023/06/29 07:04:10.761, True, 1.989, 0.136873
2023/06/29 07:04:11.257, True, 1.685, 0.135958
2023/06/29 07:04:11.761, True, 1.990, 0.135424